Location: Pardubice
(50.0330°N, 15.7830°E)
Time: 11:14:15
(UTC+02:00)

A-11 Canister half - Visible Passes

Search period start: 07 October 2024 00:00
Search period end: 17 October 2024 00:00
Orbit: 1515 x 1684 km, 47.2° (Epoch: 06 October)

Date Brightness Start Highest point End Pass type
(mag) Time Alt. Az. Time Alt. Az. Time Alt. Az.
07 Oct 10.4 20:22:58 10° W 20:30:29 28° SW 20:37:53 10° S visible
08 Oct 10.4 19:59:52 10° W 20:07:36 30° SW 20:15:11 10° SSE visible
09 Oct 10.4 19:36:48 10° W 19:44:42 31° SW 19:52:28 10° SSE visible
10 Oct 10.4 19:13:44 10° W 19:21:49 33° SW 19:29:44 10° SSE visible
11 Oct 10.4 18:50:40 10° W 18:58:55 35° SW 19:07:00 10° SSE visible
12 Oct 10.4 18:27:36 10° W 18:36:01 37° SW 18:44:13 10° SSE visible
13 Oct 11.3 20:13:15 10° WSW 20:15:42 11° WSW 20:18:07 10° SW visible
14 Oct 11.3 19:49:25 10° W 19:52:52 12° WSW 19:56:16 10° SW visible
15 Oct 11.3 19:25:51 10° W 19:30:01 14° SW 19:34:10 10° SSW visible
16 Oct 11.3 19:02:24 10° W 19:07:11 15° SW 19:11:54 10° SSW visible
